GW0692 Weather Reports


time (UTC)temp
C
wind
direction
speed
KPH
gust
KPH
rain 1hr
cm
rain 24hr
cm
rain mn
cm
humidity
%
barometer
mb
20260506050948 4 258 3.2 3.2 0.00 0.20 0.20 97 1015.3
20260506050446 4 263 1.6 3.2 0.00 0.20 0.20 97 1015.4
20260506044936 4 277 3.2 3.2 0.13 0.20 0.20 96 1015.3
20260506044435 4 255 4.8 4.8 0.00 0.18 0.18 96 1015.2
20260506043931 4 239 0.0 0.0 0.00 0.18 0.18 96 1015.1
20260506043429 4 236 0.0 0.0 0.00 0.18 0.18 95 1015.1
20260506042926 4 284 6.4 8.0 0.18 0.18 0.18 95 1014.9
20260506042426 4 260 0.0 0.0 0.36 0.18 0.18 94 1014.7
20260506041923 4 250 4.8 8.0 0.48 0.15 0.15 93 1015.2
20260506041421 4 264 0.0 0.0 0.43 0.13 0.13 91 1015.2
20260506040918 5 262 4.8 4.8 0.13 0.08 0.08 90 1015.1
20260506040415 5 215 3.2 4.8 0.00 0.05 0.05 88 1014.8
20260506035911 5 245 4.8 8.0 0.00 0.05 0.05 86 1014.6
20260506035409 5 169 6.4 8.0 0.00 0.05 0.05 85 1014.8
20260506034905 5 188 4.8 8.0 0.00 0.05 0.05 85 1014.7
20260506034403 5 289 8.0 14.5 0.00 0.05 0.05 85 1014.4
20260506033900 5 231 4.8 4.8 0.00 0.05 0.05 85 1014.6
20260506033357 5 157 3.2 3.2 0.00 0.05 0.05 84 1014.6
20260506032854 5 245 4.8 4.8 0.00 0.05 0.05 84 1013.9
20260506032350 5 31 11.3 24.1 0.00 0.05 0.05 84 1013.8
20260506031847 6 274 8.0 14.5 0.00 0.05 0.05 84 1013.9
20260506031345 6 19 3.2 4.8 0.00 0.05 0.05 83 1013.4
20260506030842 6 227 6.4 8.0 0.00 0.05 0.05 81 1013.4
20260506030340 7 248 8.0 14.5 0.00 0.05 0.05 78 1013.6
20260506025837 7 249 1.6 3.2 0.00 0.05 0.05 76 1013.4
20260506025333 7 315 6.4 14.5 0.00 0.05 0.05 75 1013.4
20260506024830 7 262 0.0 3.2 0.00 0.05 0.05 74 1013.2
20260506024327 7 266 0.0 0.0 0.00 0.05 0.05 73 1012.9
20260506023823 8 266 3.2 3.2 0.00 0.05 0.05 72 1013.4
20260506023320 8 257 3.2 4.8 0.00 0.05 0.05 72 1012.9
20260506022817 8 241 4.8 4.8 0.00 0.05 0.05 72 1012.9
20260506022315 8 259 4.8 4.8 0.00 0.05 0.05 72 1012.9
20260506021813 8 257 4.8 4.8 0.00 0.05 0.05 71 1012.8
20260506021309 8 260 3.2 3.2 0.00 0.05 0.05 69 1012.7
20260506020806 8 261 3.2 3.2 0.00 0.05 0.05 68 1012.7
20260506020304 8 278 4.8 8.0 0.00 0.05 0.05 68 1012.7
20260506015801 8 275 4.8 4.8 0.00 0.05 0.05 68 1012.4
20260506015258 9 257 4.8 4.8 0.00 0.05 0.05 67 1012.4
20260506014755 9 257 1.6 3.2 0.00 0.05 0.05 66 1012.1
20260506014252 9 225 4.8 4.8 0.00 0.05 0.05 66 1012.6
20260506013749 10 235 9.7 14.5 0.00 0.05 0.05 66 1012.7
20260506013246 10 226 6.4 8.0 0.00 0.05 0.05 65 1012.2
20260506012742 10 224 8.0 14.5 0.00 0.05 0.05 65 1012.3
20260506012239 10 240 8.0 11.3 0.00 0.05 0.05 64 1012.1
20260506011737 10 267 4.8 4.8 0.00 0.05 0.05 63 1011.8
20260506011233 10 247 9.7 11.3 0.00 0.05 0.05 63 1011.8
20260506010731 10 281 8.0 11.3 0.00 0.05 0.05 63 1012.3
20260506010228 10 245 8.0 14.5 0.00 0.05 0.05 63 1012.2
20260506005725 9 271 11.3 14.5 0.00 0.05 0.05 63 1012.1
20260506005222 10 251 8.0 11.3 0.00 0.05 0.05 62 1011.8
20260506004718 10 205 8.0 11.3 0.00 0.05 0.05 61 1011.8
20260506004216 10 266 9.7 14.5 0.00 0.05 0.05 61 1011.9
20260506003711 10 270 9.7 11.3 0.00 0.05 0.05 61 1012.1
20260506003208 10 224 9.7 14.5 0.00 0.05 0.05 60 1011.8
20260506002704 10 267 16.1 24.1 0.00 0.05 0.05 60 1012.1
20260506002200 10 253 9.7 11.3 0.00 0.05 0.05 59 1011.9
20260506001656 10 247 8.0 11.3 0.00 0.05 0.05 59 1011.9
20260506001154 10 241 11.3 16.1 0.00 0.05 0.05 59 1011.8
20260506000651 10 257 6.4 8.0 0.00 0.05 0.05 58 1011.8
20260506000148 11 261 6.4 11.3 0.00 0.05 0.05 56 1011.9
20260505235646 11 250 9.7 16.1 0.00 0.05 0.05 55 1011.8
20260505235143 10 268 9.7 19.3 0.00 0.05 0.05 58 1011.9
20260505234640 11 247 11.3 14.5 0.00 0.05 0.05 58 1011.9
20260505234137 11 242 9.7 11.3 0.00 0.05 0.05 55 1011.9
20260505233634 11 270 8.0 11.3 0.00 0.05 0.05 57 1011.9
20260505233131 12 273 11.3 14.5 0.00 0.05 0.05 57 1011.8
20260505232629 12 239 9.7 14.5 0.00 0.05 0.05 57 1012.1
20260505232126 12 282 14.5 22.5 0.00 0.05 0.05 54 1011.8
20260505231623 12 239 9.7 16.1 0.00 0.05 0.05 55 1011.9
20260505231122 11 265 4.8 8.0 0.00 0.05 0.05 62 1011.9
20260505230620 11 256 9.7 11.3 0.00 0.05 0.05 62 1012.1
20260505230115 11 258 11.3 14.5 0.00 0.05 0.05 63 1011.9
20260505225612 11 278 9.7 11.3 0.00 0.05 0.05 64 1011.8
20260505225108 11 222 12.9 19.3 0.00 0.05 0.05 66 1012.1
20260505224605 11 248 11.3 16.1 0.00 0.05 0.05 65 1011.9
20260505224102 9 234 11.3 14.5 0.00 0.05 0.05 68 1012.3
20260505223559 9 264 11.3 19.3 0.00 0.05 0.05 70 1012.4
20260505223055 9 286 11.3 16.1 0.00 0.05 0.05 72 1012.1
20260505222552 10 231 19.3 24.1 0.00 0.05 0.05 70 1012.3
20260505222048 10 292 14.5 22.5 0.00 0.05 0.05 67 1012.3
20260505221546 10 308 17.7 22.5 0.00 0.05 0.05 66 1012.1
20260505221042 11 268 14.5 19.3 0.00 0.05 0.05 62 1012.3
20260505220539 11 278 8.0 8.0 0.00 0.05 0.05 62 1012.4
20260505220037 11 283 12.9 14.5 0.00 0.05 0.05 66 1012.4
20260505215535 11 245 12.9 14.5 0.00 0.05 0.05 65 1012.6
20260505215032 10 269 9.7 11.3 0.00 0.05 0.05 67 1012.6
20260505214530 11 250 9.7 14.5 0.00 0.05 0.05 66 1012.3
20260505214027 11 219 17.7 22.5 0.00 0.05 0.05 62 1012.2
20260505213525 12 266 14.5 19.3 0.00 0.05 0.05 60 1012.4
20260505213021 11 230 8.0 8.0 0.00 0.05 0.05 62 1012.3
20260505212517 11 236 12.9 16.1 0.00 0.05 0.05 63 1012.4
20260505212014 12 223 11.3 14.5 0.00 0.05 0.05 62 1012.6
20260505211512 12 233 20.9 27.4 0.00 0.05 0.05 60 1012.6
20260505211008 11 247 14.5 16.1 0.00 0.05 0.05 63 1012.6
20260505210505 12 253 14.5 22.5 0.00 0.05 0.05 64 1012.8
20260505210002 12 261 12.9 16.1 0.00 0.05 0.05 61 1012.4
20260505205500 12 280 11.3 19.3 0.00 0.05 0.05 62 1012.6
20260505204956 12 254 14.5 24.1 0.00 0.05 0.05 62 1012.3
20260505204455 12 268 16.1 24.1 0.00 0.05 0.05 64 1012.6
20260505203952 12 277 14.5 19.3 0.00 0.05 0.05 65 1012.3
20260505203448 12 337 8.0 11.3 0.00 0.05 0.05 65 1012.7
20260505202944 11 259 12.9 16.1 0.00 0.05 0.05 67 1013.1
20260505202441 11 225 11.3 19.3 0.00 0.05 0.05 67 1012.9
20260505201937 11 265 14.5 24.1 0.00 0.05 0.05 70 1012.7
20260505201434 10 281 14.5 19.3 0.00 0.05 0.05 74 1012.9
20260505200932 10 274 14.5 19.3 0.00 0.05 0.05 73 1012.9
20260505200429 10 277 9.7 11.3 0.00 0.05 0.05 75 1012.6
20260505195925 11 258 12.9 16.1 0.00 0.05 0.05 72 1012.8
20260505195422 11 234 17.7 24.1 0.00 0.05 0.05 73 1012.7
20260505194920 10 279 14.5 19.3 0.00 0.05 0.05 77 1013.2
20260505194417 10 285 16.1 22.5 0.00 0.05 0.05 81 1013.2
20260505193917 9 300 12.9 16.1 0.00 0.05 0.05 86 1013.1
20260505193415 10 230 14.5 19.3 0.00 0.05 0.05 90 1012.8
20260505192912 8 309 12.9 19.3 0.00 0.05 0.05 93 1013.2
20260505192410 9 291 14.5 22.5 0.00 0.05 0.05 94 1013.4
20260505191908 8 300 11.3 16.1 0.00 0.05 0.05 95 1013.1
20260505191406 8 266 11.3 14.5 0.18 0.05 0.05 94 1013.3
20260505190903 8 326 12.9 19.3 0.30 0.05 0.05 92 1013.3
20260505190358 8 268 14.5 19.3 0.13 0.03 0.03 90 1013.7
20260505185853 8 244 11.3 19.3 0.00 0.00 0.00 83 1013.7
20260505185350 11 210 12.9 14.5 0.00 0.00 0.00 68 1013.3
20260505184847 12 254 9.7 11.3 0.00 0.00 0.00 59 1013.2
20260505184344 12 285 17.7 19.3 0.00 0.00 0.00 58 1013.1
20260505183841 12 223 11.3 14.5 0.00 0.00 0.00 58 1013.3
20260505183337 12 257 9.7 14.5 0.00 0.00 0.00 57 1013.3
20260505182834 12 244 17.7 24.1 0.00 0.00 0.00 57 1013.2
20260505182331 12 276 19.3 24.1 0.00 0.00 0.00 59 1013.1
20260505181828 12 260 14.5 22.5 0.00 0.00 0.00 58 1013.3
20260505181325 11 228 8.0 11.3 0.00 0.00 0.00 62 1013.4
20260505180821 11 246 11.3 11.3 0.00 0.00 0.00 61 1013.7
20260505180318 11 252 17.7 27.4 0.00 0.00 0.00 60 1013.6
20260505175814 12 255 11.3 14.5 0.00 0.00 0.00 59 1013.7
20260505175311 11 248 9.7 14.5 0.00 0.00 0.00 59 1013.7
20260505174808 11 306 11.3 16.1 0.00 0.00 0.00 60 1013.4
20260505174305 11 243 9.7 11.3 0.00 0.00 0.00 60 1013.6
20260505173801 12 249 16.1 22.5 0.00 0.00 0.00 57 1013.7
20260505173257 12 242 9.7 14.5 0.00 0.00 0.00 57 1013.6
20260505172754 11 243 3.2 4.8 0.00 0.00 0.00 59 1013.6
20260505172252 11 254 4.8 4.8 0.00 0.00 0.00 58 1013.8
20260505171747 10 235 9.7 14.5 0.00 0.00 0.00 60 1013.9
20260505171244 10 251 12.9 19.3 0.00 0.00 0.00 62 1013.8
20260505170740 10 251 4.8 4.8 0.00 0.00 0.00 60 1013.8
20260505170237 10 239 3.2 3.2 0.00 0.00 0.00 63 1013.8
20260505165732 9 239 1.6 3.2 0.00 0.00 0.00 64 1013.9
20260505165229 9 229 3.2 3.2 0.00 0.00 0.00 63 1013.8
20260505164724 10 296 4.8 8.0 0.00 0.00 0.00 62 1013.8
20260505164222 10 255 3.2 4.8 0.00 0.00 0.00 63 1013.8
20260505163720 9 285 1.6 3.2 0.00 0.00 0.00 65 1013.7
20260505163218 9 277 3.2 4.8 0.00 0.00 0.00 64 1013.9
20260505162715 9 90 3.2 4.8 0.00 0.00 0.00 64 1013.9
20260505162212 9 296 1.6 3.2 0.00 0.00 0.00 63 1014.1
20260505161709 9 324 4.8 4.8 0.00 0.00 0.00 63 1014.1
20260505161207 8 62 1.6 3.2 0.00 0.00 0.00 64 1014.1
20260505160704 8 262 3.2 3.2 0.00 0.00 0.00 63 1014.6
20260505160201 8 234 4.8 4.8 0.00 0.00 0.00 62 1014.3
20260505153140 8 266 6.4 8.0 0.00 0.00 0.00 67 1014.3
20260505152637 8 243 11.3 14.5 0.00 0.00 0.00 69 1014.4
20260505152133 8 264 8.0 8.0 0.00 0.00 0.00 68 1014.2
20260505151628 7 246 4.8 4.8 0.00 0.00 0.00 70 1014.4
20260505151126 7 264 8.0 8.0 0.00 0.00 0.00 71 1014.4
20260505150622 7 252 8.0 11.3 0.00 0.00 0.00 72 1014.4
20260505150119 7 261 6.4 8.0 0.00 0.00 0.00 77 1014.6
20260505140548 8 279 8.0 8.0 0.00 0.00 0.00 60 1014.6
20260505125001 8 265 1.6 3.2 0.00 0.00 0.00 58 1013.9
20260505124458 8 241 3.2 3.2 0.00 0.00 0.00 57 1013.9
20260505123954 8 270 3.2 4.8 0.00 0.00 0.00 57 1014.1
20260505123451 8 260 3.2 4.8 0.00 0.00 0.00 56 1014.3
20260505122947 8 254 4.8 4.8 0.00 0.00 0.00 55 1014.4
20260505122444 8 244 4.8 8.0 0.00 0.00 0.00 55 1014.1
20260505121941 8 258 4.8 8.0 0.00 0.00 0.00 55 1014.3
20260505121438 8 285 4.8 11.3 0.00 0.00 0.00 54 1014.1
20260505120933 8 274 4.8 4.8 0.00 0.00 0.00 54 1014.3
20260505120430 8 245 3.2 3.2 0.00 0.00 0.00 53 1014.4
20260505115929 8 276 4.8 4.8 0.00 0.00 0.00 52 1014.1
20260505115426 8 267 3.2 3.2 0.00 0.00 0.00 51 1014.1
20260505114924 8 275 6.4 8.0 0.00 0.00 0.00 51 1013.9
20260505114420 8 267 8.0 11.3 0.00 0.00 0.00 50 1013.9
20260505113916 8 263 4.8 4.8 0.00 0.00 0.00 49 1013.9
20260505113413 8 249 9.7 19.3 0.00 0.00 0.00 49 1013.9
20260505112909 8 256 8.0 11.3 0.00 0.00 0.00 48 1014.1
20260505112407 9 253 6.4 8.0 0.00 0.00 0.00 48 1013.9
20260505111902 9 245 4.8 4.8 0.00 0.00 0.00 47 1013.8
20260505111357 9 270 9.7 16.1 0.00 0.00 0.00 47 1014.1
20260505110854 9 251 6.4 8.0 0.00 0.00 0.00 46 1014.2
20260505110351 9 288 9.7 11.3 0.00 0.00 0.00 46 1014.2
20260505101821 10 271 8.0 11.3 0.00 0.00 0.00 44 1013.8
20260505101316 10 285 4.8 4.8 0.00 0.00 0.00 43 1013.9
20260505100813 9 266 8.0 11.3 0.00 0.00 0.00 44 1014.1
20260505100310 9 253 3.2 4.8 0.00 0.00 0.00 43 1013.9
20260505095805 10 247 4.8 4.8 0.00 0.00 0.00 43 1014.2
20260505095304 9 241 8.0 8.0 0.00 0.00 0.00 43 1014.1
20260505094758 9 256 4.8 4.8 0.00 0.00 0.00 43 1013.9
20260505094256 9 271 0.0 0.0 0.00 0.00 0.00 43 1013.8
20260505093751 9 248 1.6 3.2 0.00 0.00 0.00 43 1013.8
20260505093249 10 251 0.0 0.0 0.00 0.00 0.00 43 1013.4
20260505092745 10 34 6.4 8.0 0.00 0.00 0.00 43 1013.6
20260505092244 10 247 4.8 4.8 0.00 0.00 0.00 43 1013.7
20260505091741 10 249 4.8 4.8 0.00 0.00 0.00 43 1013.7
20260505091239 10 268 8.0 14.5 0.00 0.00 0.00 43 1013.4
20260505090737 10 251 4.8 8.0 0.00 0.00 0.00 43 1013.7
20260505090235 10 268 8.0 14.5 0.00 0.00 0.00 42 1013.6
20260505085732 10 231 9.7 14.5 0.00 0.00 0.00 42 1013.8
20260505085230 10 264 11.3 16.1 0.00 0.00 0.00 41 1013.6
20260505084727 10 318 16.1 22.5 0.00 0.00 0.00 41 1013.7
20260505084226 11 241 16.1 22.5 0.00 0.00 0.00 41 1013.7
20260505083722 11 262 9.7 14.5 0.00 0.00 0.00 41 1013.9
20260505083219 11 292 11.3 19.3 0.00 0.00 0.00 41 1013.8
20260505082715 11 263 8.0 11.3 0.00 0.00 0.00 41 1013.8
20260505082213 11 276 4.8 8.0 0.00 0.00 0.00 42 1013.9
20260505081708 11 296 8.0 8.0 0.00 0.00 0.00 42 1014.2
20260505081206 11 282 9.7 14.5 0.00 0.00 0.00 42 1014.3
20260505080703 11 279 16.1 27.4 0.00 0.00 0.00 42 1014.1
20260505080158 11 285 14.5 19.3 0.00 0.00 0.00 42 1014.6
20260505075654 11 300 9.7 11.3 0.00 0.00 0.00 42 1014.7
20260505075151 11 337 9.7 19.3 0.00 0.00 0.00 42 1014.4
20260505074648 11 283 9.7 11.3 0.00 0.00 0.00 41 1014.4
20260505074145 11 271 8.0 11.3 0.00 0.00 0.00 41 1014.2
20260505073643 11 287 9.7 14.5 0.00 0.00 0.00 40 1014.2
20260505073141 11 208 4.8 4.8 0.00 0.00 0.00 39 1014.3
20260505072636 11 262 9.7 14.5 0.00 0.00 0.00 39 1013.8
20260505072133 11 272 11.3 16.1 0.00 0.00 0.00 39 1014.2
20260505071629 11 239 9.7 14.5 0.00 0.00 0.00 39 1013.9
20260505071127 11 224 8.0 8.0 0.00 0.00 0.00 39 1014.3
20260505070624 11 283 14.5 22.5 0.00 0.00 0.00 39 1014.2
20260505070120 12 260 8.0 11.3 0.00 0.00 0.00 39 1014.6
20260505065616 12 290 12.9 19.3 0.00 0.00 0.00 38 1014.4
20260505065113 12 260 11.3 16.1 0.00 0.00 0.00 38 1014.2
20260505064610 12 258 9.7 11.3 0.00 0.00 0.00 37 1014.2
20260505064108 12 262 12.9 16.1 0.00 0.00 0.00 37 1014.1
20260505063605 12 257 11.3 16.1 0.00 0.00 0.00 36 1014.2
20260505063101 12 228 17.7 24.1 0.00 0.00 0.00 36 1014.1
20260505062557 12 231 9.7 14.5 0.00 0.00 0.00 35 1014.4
20260505062055 12 303 16.1 19.3 0.00 0.00 0.00 35 1014.3
20260505061552 12 271 8.0 11.3 0.00 0.00 0.00 34 1014.4
20260505061050 12 272 14.5 19.3 0.00 0.00 0.00 34 1014.4
20260505060547 12 240 11.3 19.3 0.00 0.00 0.00 33 1014.3